Time,TemperatureF,DewpointF,PressureIn,WindDirection,WindDirectionDegrees,WindSpeedMPH,WindSpeedGustMPH,Humidity,HourlyPrecipIn,Conditions,Clouds,dailyrainin,SoftwareType,DateUTC
2013-08-22 00:01:00,70.1,64.0,29.26,SSW,202,1.0,5.0,83,0.00,,,0.00,Rainwise IP-100,2013-08-22 04:01:00,
2013-08-22 00:02:00,70.1,64.0,29.26,WSW,247,4.0,5.0,83,0.00,,,0.00,Rainwise IP-100,2013-08-22 04:02:00,
2013-08-22 00:07:00,70.1,65.0,29.25,South,180,2.0,6.0,84,0.00,,,0.00,Rainwise IP-100,2013-08-22 04:07:00,
2013-08-22 00:12:00,70.1,65.0,29.26,SSE,157,2.0,6.0,84,0.00,,,0.00,Rainwise IP-100,2013-08-22 04:12:00,
2013-08-22 00:17:00,69.9,65.0,29.26,SSE,157,0.0,5.0,85,0.00,,,0.00,Rainwise IP-100,2013-08-22 04:17:00,
2013-08-22 00:22:00,69.7,65.0,29.26,South,180,1.0,2.0,85,0.00,,,0.00,Rainwise IP-100,2013-08-22 04:22:00,
2013-08-22 00:27:00,69.5,65.0,29.26,South,180,1.0,3.0,85,0.00,,,0.00,Rainwise IP-100,2013-08-22 04:27:00,
2013-08-22 00:32:00,69.5,65.0,29.26,SW,225,1.0,4.0,85,0.00,,,0.00,Rainwise IP-100,2013-08-22 04:32:00,
2013-08-22 00:37:00,69.4,65.0,29.27,WNW,292,2.0,5.0,86,0.00,,,0.00,Rainwise IP-100,2013-08-22 04:37:00,
2013-08-22 00:42:00,69.2,65.0,29.27,NNE,22,1.0,4.0,86,0.00,,,0.00,Rainwise IP-100,2013-08-22 04:42:00,
2013-08-22 00:47:00,68.8,64.0,29.27,North,360,2.0,2.0,86,0.00,,,0.00,Rainwise IP-100,2013-08-22 04:47:00,
2013-08-22 00:52:00,68.5,64.0,29.27,North,360,2.0,2.0,87,0.00,,,0.00,Rainwise IP-100,2013-08-22 04:52:00,
2013-08-22 00:57:00,68.2,64.0,29.27,North,360,0.0,2.0,88,0.00,,,0.00,Rainwise IP-100,2013-08-22 04:57:00,
2013-08-22 01:02:00,67.9,64.0,29.26,North,360,0.0,0.0,89,0.00,,,0.00,Rainwise IP-100,2013-08-22 05:02:00,
2013-08-22 01:07:00,67.6,64.0,29.27,North,360,0.0,0.0,89,0.00,,,0.00,Rainwise IP-100,2013-08-22 05:07:00,
2013-08-22 01:12:00,67.3,64.0,29.26,North,360,0.0,0.0,90,0.00,,,0.00,Rainwise IP-100,2013-08-22 05:12:00,
2013-08-22 01:17:00,67.0,64.0,29.26,North,360,0.0,0.0,91,0.00,,,0.00,Rainwise IP-100,2013-08-22 05:17:00,
2013-08-22 01:22:00,66.7,64.0,29.26,North,360,0.0,0.0,91,0.00,,,0.00,Rainwise IP-100,2013-08-22 05:22:00,
2013-08-22 01:27:00,66.5,64.0,29.26,North,360,0.0,0.0,92,0.00,,,0.00,Rainwise IP-100,2013-08-22 05:27:00,
2013-08-22 01:32:00,66.4,64.0,29.26,North,360,0.0,0.0,93,0.00,,,0.00,Rainwise IP-100,2013-08-22 05:32:00,
2013-08-22 01:37:00,66.4,64.0,29.26,SSW,202,0.0,1.0,94,0.00,,,0.00,Rainwise IP-100,2013-08-22 05:37:00,
2013-08-22 01:42:00,66.8,64.0,29.26,West,270,1.0,4.0,93,0.00,,,0.00,Rainwise IP-100,2013-08-22 05:42:00,
2013-08-22 01:47:00,67.1,65.0,29.26,North,360,2.0,2.0,92,0.00,,,0.00,Rainwise IP-100,2013-08-22 05:47:00,
2013-08-22 01:52:00,66.9,65.0,29.26,North,360,2.0,3.0,92,0.00,,,0.00,Rainwise IP-100,2013-08-22 05:52:00,
2013-08-22 01:57:00,66.7,64.0,29.26,North,360,1.0,2.0,93,0.00,,,0.00,Rainwise IP-100,2013-08-22 05:57:00,
2013-08-22 02:02:00,66.5,64.0,29.26,North,360,0.0,2.0,93,0.00,,,0.00,Rainwise IP-100,2013-08-22 06:02:00,
2013-08-22 02:07:00,66.6,64.0,29.26,ESE,112,2.0,2.0,93,0.00,,,0.00,Rainwise IP-100,2013-08-22 06:07:00,
2013-08-22 02:12:00,66.6,64.0,29.26,ESE,112,0.0,2.0,93,0.00,,,0.00,Rainwise IP-100,2013-08-22 06:12:00,
2013-08-22 02:17:00,66.4,64.0,29.26,ESE,112,0.0,2.0,93,0.00,,,0.00,Rainwise IP-100,2013-08-22 06:17:00,
2013-08-22 02:22:00,66.3,64.0,29.26,ESE,112,0.0,2.0,94,0.00,,,0.00,Rainwise IP-100,2013-08-22 06:22:00,
2013-08-22 02:27:00,65.9,64.0,29.26,NW,315,0.0,2.0,93,0.00,,,0.00,Rainwise IP-100,2013-08-22 06:27:00,
2013-08-22 02:32:00,65.8,63.0,29.26,NW,315,0.0,1.0,94,0.00,,,0.00,Rainwise IP-100,2013-08-22 06:32:00,
2013-08-22 02:37:00,65.7,63.0,29.26,NW,315,0.0,2.0,94,0.00,,,0.00,Rainwise IP-100,2013-08-22 06:37:00,
2013-08-22 02:42:00,65.7,63.0,29.26,NW,315,0.0,2.0,94,0.00,,,0.00,Rainwise IP-100,2013-08-22 06:42:00,
2013-08-22 02:47:00,65.9,64.0,29.26,West,270,1.0,2.0,93,0.00,,,0.00,Rainwise IP-100,2013-08-22 06:47:00,
2013-08-22 02:52:00,66.2,64.0,29.25,North,360,0.0,2.0,93,0.00,,,0.00,Rainwise IP-100,2013-08-22 06:52:00,
2013-08-22 02:57:00,66.3,64.0,29.25,East,90,0.0,2.0,93,0.00,,,0.00,Rainwise IP-100,2013-08-22 06:57:00,
2013-08-22 03:02:00,66.4,64.0,29.25,ENE,67,0.0,2.0,93,0.00,,,0.00,Rainwise IP-100,2013-08-22 07:02:00,
2013-08-22 03:07:00,66.7,64.0,29.25,East,90,2.0,3.0,93,0.00,,,0.00,Rainwise IP-100,2013-08-22 07:07:00,
2013-08-22 03:12:00,66.6,64.0,29.25,East,90,0.0,2.0,93,0.00,,,0.00,Rainwise IP-100,2013-08-22 07:12:00,
2013-08-22 03:17:00,66.1,63.0,29.25,ESE,112,2.0,2.0,92,0.00,,,0.00,Rainwise IP-100,2013-08-22 07:17:00,
2013-08-22 03:22:00,65.7,63.0,29.24,SE,135,2.0,2.0,92,0.00,,,0.00,Rainwise IP-100,2013-08-22 07:22:00,
2013-08-22 03:27:00,65.4,63.0,29.24,ESE,112,2.0,2.0,93,0.00,,,0.00,Rainwise IP-100,2013-08-22 07:27:00,
2013-08-22 03:32:00,65.5,63.0,29.24,SE,135,2.0,4.0,93,0.00,,,0.00,Rainwise IP-100,2013-08-22 07:32:00,
2013-08-22 03:37:00,65.6,63.0,29.24,SE,135,3.0,4.0,93,0.00,,,0.00,Rainwise IP-100,2013-08-22 07:37:00,
2013-08-22 03:42:00,65.6,63.0,29.23,SE,135,1.0,4.0,92,0.00,,,0.00,Rainwise IP-100,2013-08-22 07:42:00,
2013-08-22 03:47:00,65.6,63.0,29.23,ESE,112,1.0,2.0,93,0.00,,,0.00,Rainwise IP-100,2013-08-22 07:47:00,
2013-08-22 03:52:00,65.8,63.0,29.23,ESE,112,2.0,3.0,93,0.00,,,0.00,Rainwise IP-100,2013-08-22 07:52:00,
2013-08-22 03:57:00,65.6,63.0,29.23,ESE,112,1.0,2.0,93,0.00,,,0.00,Rainwise IP-100,2013-08-22 07:57:00,
2013-08-22 04:02:00,65.4,63.0,29.23,ESE,112,0.0,2.0,93,0.00,,,0.00,Rainwise IP-100,2013-08-22 08:02:00,
2013-08-22 04:07:00,65.1,63.0,29.23,ESE,112,0.0,2.0,94,0.00,,,0.00,Rainwise IP-100,2013-08-22 08:07:00,
2013-08-22 04:12:00,64.9,63.0,29.23,ESE,112,0.0,2.0,95,0.00,,,0.00,Rainwise IP-100,2013-08-22 08:12:00,
2013-08-22 04:17:00,64.8,63.0,29.22,ESE,112,0.0,0.0,95,0.00,,,0.00,Rainwise IP-100,2013-08-22 08:17:00,
2013-08-22 04:22:00,64.6,63.0,29.22,ESE,112,0.0,1.0,96,0.00,,,0.00,Rainwise IP-100,2013-08-22 08:22:00,
2013-08-22 04:27:00,64.5,63.0,29.22,ESE,112,0.0,0.0,96,0.00,,,0.00,Rainwise IP-100,2013-08-22 08:27:00,
2013-08-22 04:32:00,64.7,63.0,29.22,ESE,112,1.0,2.0,97,0.00,,,0.00,Rainwise IP-100,2013-08-22 08:32:00,
2013-08-22 04:37:00,64.9,63.0,29.21,SE,135,1.0,3.0,95,0.00,,,0.00,Rainwise IP-100,2013-08-22 08:37:00,
2013-08-22 04:42:00,65.4,63.0,29.21,SSE,157,1.0,3.0,94,0.00,,,0.00,Rainwise IP-100,2013-08-22 08:42:00,
2013-08-22 04:47:00,65.6,63.0,29.21,SSE,157,2.0,2.0,94,0.00,,,0.00,Rainwise IP-100,2013-08-22 08:47:00,
2013-08-22 04:52:00,65.9,64.0,29.21,SE,135,1.0,5.0,93,0.00,,,0.00,Rainwise IP-100,2013-08-22 08:52:00,
2013-08-22 04:57:00,65.9,64.0,29.21,SSE,157,0.0,4.0,93,0.00,,,0.00,Rainwise IP-100,2013-08-22 08:57:00,
2013-08-22 05:02:00,65.9,63.0,29.21,SE,135,1.0,2.0,91,0.00,,,0.00,Rainwise IP-100,2013-08-22 09:02:00,
2013-08-22 05:07:00,65.9,63.0,29.21,SSE,157,2.0,5.0,92,0.00,,,0.00,Rainwise IP-100,2013-08-22 09:07:00,
2013-08-22 05:12:00,65.9,63.0,29.21,SSW,202,1.0,2.0,91,0.00,,,0.00,Rainwise IP-100,2013-08-22 09:12:00,
2013-08-22 05:17:00,65.9,63.0,29.21,NE,45,2.0,4.0,91,0.00,,,0.00,Rainwise IP-100,2013-08-22 09:17:00,
2013-08-22 05:22:00,65.8,62.0,29.21,SE,135,1.0,2.0,91,0.00,,,0.00,Rainwise IP-100,2013-08-22 09:22:00,
2013-08-22 05:27:00,65.9,63.0,29.20,SSE,157,0.0,4.0,91,0.00,,,0.00,Rainwise IP-100,2013-08-22 09:27:00,
2013-08-22 05:32:00,65.7,62.0,29.21,ESE,112,2.0,2.0,91,0.00,,,0.00,Rainwise IP-100,2013-08-22 09:32:00,
2013-08-22 05:37:00,65.3,62.0,29.20,East,90,1.0,2.0,92,0.00,,,0.00,Rainwise IP-100,2013-08-22 09:37:00,
2013-08-22 05:42:00,64.6,62.0,29.20,East,90,2.0,2.0,94,0.00,,,0.00,Rainwise IP-100,2013-08-22 09:42:00,
2013-08-22 05:47:00,64.1,62.0,29.21,ESE,112,2.0,2.0,95,0.00,,,0.00,Rainwise IP-100,2013-08-22 09:47:00,
2013-08-22 05:52:00,63.9,63.0,29.20,East,90,1.0,3.0,96,0.00,,,0.00,Rainwise IP-100,2013-08-22 09:52:00,
2013-08-22 05:57:00,63.7,62.0,29.20,ESE,112,1.0,2.0,97,0.00,,,0.00,Rainwise IP-100,2013-08-22 09:57:00,
2013-08-22 06:02:00,63.7,62.0,29.20,ESE,112,0.0,3.0,97,0.00,,,0.00,Rainwise IP-100,2013-08-22 10:02:00,
2013-08-22 06:07:00,63.5,62.0,29.20,ESE,112,0.0,2.0,97,0.00,,,0.00,Rainwise IP-100,2013-08-22 10:07:00,
2013-08-22 06:12:00,63.5,62.0,29.20,ESE,112,2.0,2.0,97,0.00,,,0.00,Rainwise IP-100,2013-08-22 10:12:00,
2013-08-22 06:17:00,63.2,62.0,29.20,SE,135,2.0,2.0,97,0.00,,,0.00,Rainwise IP-100,2013-08-22 10:17:00,
2013-08-22 06:22:00,63.3,62.0,29.21,SE,135,1.0,2.0,98,0.00,,,0.00,Rainwise IP-100,2013-08-22 10:22:00,
2013-08-22 06:27:00,63.6,63.0,29.20,SSW,202,2.0,2.0,98,0.00,,,0.00,Rainwise IP-100,2013-08-22 10:27:00,
2013-08-22 06:32:00,64.1,63.0,29.20,SSW,202,1.0,4.0,98,0.00,,,0.00,Rainwise IP-100,2013-08-22 10:32:00,
2013-08-22 06:37:00,64.9,64.0,29.20,SSW,202,2.0,4.0,96,0.00,,,0.00,Rainwise IP-100,2013-08-22 10:37:00,
2013-08-22 06:42:00,64.9,64.0,29.20,NW,315,0.0,2.0,96,0.00,,,0.00,Rainwise IP-100,2013-08-22 10:42:00,
2013-08-22 06:47:00,64.9,64.0,29.21,SSE,157,0.0,2.0,96,0.00,,,0.00,Rainwise IP-100,2013-08-22 10:47:00,
2013-08-22 08:27:00,70.4,65.0,29.23,SSE,157,2.0,6.0,84,0.00,,,0.00,Rainwise IP-100,2013-08-22 12:27:00,
2013-08-22 08:32:00,70.9,66.0,29.23,SE,135,2.0,6.0,84,0.00,,,0.00,Rainwise IP-100,2013-08-22 12:32:00,
2013-08-22 08:37:00,71.6,66.0,29.23,SW,225,2.0,5.0,82,0.00,,,0.00,Rainwise IP-100,2013-08-22 12:37:00,
2013-08-22 08:42:00,72.2,65.0,29.23,South,180,3.0,7.0,78,0.00,,,0.00,Rainwise IP-100,2013-08-22 12:42:00,
2013-08-22 08:47:00,72.8,65.0,29.23,South,180,4.0,7.0,78,0.00,,,0.00,Rainwise IP-100,2013-08-22 12:47:00,
2013-08-22 08:52:00,73.2,65.0,29.23,SSE,157,2.0,7.0,75,0.00,,,0.00,Rainwise IP-100,2013-08-22 12:52:00,
2013-08-22 08:57:00,73.6,65.0,29.23,SE,135,4.0,8.0,74,0.00,,,0.00,Rainwise IP-100,2013-08-22 12:57:00,
2013-08-22 09:00:00,74.0,65.0,29.23,SSE,157,4.0,8.0,74,0.00,,,0.00,Rainwise IP-100,2013-08-22 13:00:00,
2013-08-22 09:05:00,74.4,65.0,29.23,SSE,157,3.0,6.0,72,0.00,,,0.00,Rainwise IP-100,2013-08-22 13:05:00,
2013-08-22 09:10:00,74.9,65.0,29.23,SSE,157,1.0,4.0,72,0.00,,,0.00,Rainwise IP-100,2013-08-22 13:10:00,
2013-08-22 09:15:00,75.4,66.0,29.23,SE,135,6.0,6.0,72,0.00,,,0.00,Rainwise IP-100,2013-08-22 13:15:00,
2013-08-22 09:20:00,76.0,65.0,29.23,SE,135,2.0,7.0,70,0.00,,,0.00,Rainwise IP-100,2013-08-22 13:20:00,
2013-08-22 09:25:00,76.6,65.0,29.23,SSE,157,6.0,6.0,69,0.00,,,0.00,Rainwise IP-100,2013-08-22 13:25:00,
2013-08-22 09:30:00,76.5,65.0,29.23,SSE,157,1.0,6.0,67,0.00,,,0.00,Rainwise IP-100,2013-08-22 13:30:00,
2013-08-22 09:35:00,77.1,66.0,29.23,SSE,157,4.0,7.0,68,0.00,,,0.00,Rainwise IP-100,2013-08-22 13:35:00,
2013-08-22 09:40:00,77.7,66.0,29.23,South,180,4.0,7.0,68,0.00,,,0.00,Rainwise IP-100,2013-08-22 13:40:00,
2013-08-22 09:45:00,77.5,66.0,29.24,SW,225,3.0,6.0,69,0.00,,,0.00,Rainwise IP-100,2013-08-22 13:45:00,
2013-08-22 09:50:00,77.7,67.0,29.24,South,180,1.0,6.0,70,0.00,,,0.00,Rainwise IP-100,2013-08-22 13:50:00,
2013-08-22 09:55:00,78.5,67.0,29.24,WSW,247,2.0,4.0,68,0.00,,,0.00,Rainwise IP-100,2013-08-22 13:55:00,
2013-08-22 10:00:00,79.0,67.0,29.24,South,180,2.0,5.0,68,0.00,,,0.00,Rainwise IP-100,2013-08-22 14:00:00,
2013-08-22 10:05:00,78.6,68.0,29.24,WNW,292,2.0,4.0,70,0.00,,,0.00,Rainwise IP-100,2013-08-22 14:05:00,
2013-08-22 10:10:00,78.4,69.0,29.24,WSW,247,2.0,5.0,72,0.00,,,0.00,Rainwise IP-100,2013-08-22 14:10:00,
2013-08-22 10:15:00,79.0,68.0,29.24,SE,135,2.0,3.0,69,0.00,,,0.00,Rainwise IP-100,2013-08-22 14:15:00,
2013-08-22 10:20:00,79.2,68.0,29.24,WSW,247,2.0,6.0,69,0.00,,,0.00,Rainwise IP-100,2013-08-22 14:20:00,
2013-08-22 10:25:00,79.6,69.0,29.24,SSW,202,4.0,6.0,70,0.00,,,0.00,Rainwise IP-100,2013-08-22 14:25:00,
2013-08-22 10:30:00,79.9,67.0,29.24,SSW,202,4.0,7.0,66,0.00,,,0.00,Rainwise IP-100,2013-08-22 14:30:00,
2013-08-22 10:35:00,80.2,67.0,29.24,SSE,157,3.0,7.0,65,0.00,,,0.00,Rainwise IP-100,2013-08-22 14:35:00,
2013-08-22 10:40:00,80.4,67.0,29.23,SSE,157,2.0,7.0,65,0.00,,,0.00,Rainwise IP-100,2013-08-22 14:40:00,
2013-08-22 10:45:00,80.6,68.0,29.23,WSW,247,2.0,8.0,66,0.00,,,0.00,Rainwise IP-100,2013-08-22 14:45:00,
2013-08-22 10:50:00,81.2,68.0,29.23,South,180,3.0,6.0,65,0.00,,,0.00,Rainwise IP-100,2013-08-22 14:50:00,
2013-08-22 10:55:00,81.6,69.0,29.23,WSW,247,1.0,6.0,65,0.00,,,0.00,Rainwise IP-100,2013-08-22 14:55:00,
2013-08-22 11:00:00,81.9,68.0,29.23,SSW,202,7.0,7.0,64,0.00,,,0.00,Rainwise IP-100,2013-08-22 15:00:00,
2013-08-22 11:05:00,82.2,68.0,29.23,East,90,1.0,7.0,63,0.00,,,0.00,Rainwise IP-100,2013-08-22 15:05:00,
2013-08-22 11:10:00,82.2,68.0,29.23,WSW,247,2.0,4.0,62,0.00,,,0.00,Rainwise IP-100,2013-08-22 15:10:00,
2013-08-22 11:15:00,82.3,67.0,29.22,SE,135,3.0,6.0,61,0.00,,,0.00,Rainwise IP-100,2013-08-22 15:15:00,
2013-08-22 11:20:00,82.6,67.0,29.23,SE,135,1.0,5.0,61,0.00,,,0.00,Rainwise IP-100,2013-08-22 15:20:00,
2013-08-22 11:25:00,82.6,69.0,29.23,WSW,247,2.0,4.0,63,0.00,,,0.00,Rainwise IP-100,2013-08-22 15:25:00,
2013-08-22 11:30:00,83.1,68.0,29.23,SSE,157,1.0,6.0,61,0.00,,,0.00,Rainwise IP-100,2013-08-22 15:30:00,
2013-08-22 11:35:00,82.9,70.0,29.23,SW,225,4.0,6.0,65,0.00,,,0.00,Rainwise IP-100,2013-08-22 15:35:00,
2013-08-22 11:40:00,83.1,69.0,29.23,WNW,292,1.0,6.0,64,0.00,,,0.00,Rainwise IP-100,2013-08-22 15:40:00,
2013-08-22 11:45:00,83.2,69.0,29.23,SW,225,2.0,9.0,62,0.00,,,0.00,Rainwise IP-100,2013-08-22 15:45:00,
2013-08-22 11:50:00,82.9,67.0,29.23,West,270,3.0,9.0,60,0.00,,,0.00,Rainwise IP-100,2013-08-22 15:50:00,
2013-08-22 11:55:00,82.8,68.0,29.23,WSW,247,2.0,7.0,62,0.00,,,0.00,Rainwise IP-100,2013-08-22 15:55:00,
2013-08-22 12:00:00,82.9,69.0,29.23,WSW,247,2.0,7.0,63,0.00,,,0.00,Rainwise IP-100,2013-08-22 16:00:00,
2013-08-22 12:05:00,82.8,66.0,29.22,SW,225,4.0,7.0,58,0.00,,,0.00,Rainwise IP-100,2013-08-22 16:05:00,
2013-08-22 12:10:00,83.0,68.0,29.22,SW,225,2.0,6.0,61,0.00,,,0.00,Rainwise IP-100,2013-08-22 16:10:00,
2013-08-22 12:15:00,83.7,67.0,29.22,SSW,202,2.0,6.0,57,0.00,,,0.00,Rainwise IP-100,2013-08-22 16:15:00,
2013-08-22 12:20:00,83.6,66.0,29.21,SW,225,2.0,10.0,55,0.00,,,0.00,Rainwise IP-100,2013-08-22 16:20:00,
2013-08-22 12:25:00,83.4,66.0,29.21,SSW,202,1.0,6.0,56,0.00,,,0.00,Rainwise IP-100,2013-08-22 16:25:00,
2013-08-22 12:30:00,83.8,67.0,29.21,West,270,2.0,5.0,58,0.00,,,0.00,Rainwise IP-100,2013-08-22 16:30:00,
2013-08-22 12:35:00,84.0,67.0,29.21,SW,225,5.0,7.0,57,0.00,,,0.00,Rainwise IP-100,2013-08-22 16:35:00,
2013-08-22 12:40:00,83.7,67.0,29.21,SW,225,1.0,8.0,57,0.00,,,0.00,Rainwise IP-100,2013-08-22 16:40:00,
2013-08-22 12:45:00,83.4,67.0,29.20,NW,315,2.0,7.0,58,0.00,,,0.00,Rainwise IP-100,2013-08-22 16:45:00,
2013-08-22 12:50:00,82.5,66.0,29.20,NW,315,1.0,7.0,58,0.00,,,0.00,Rainwise IP-100,2013-08-22 16:50:00,
2013-08-22 12:55:00,82.6,67.0,29.20,SW,225,2.0,6.0,60,0.00,,,0.00,Rainwise IP-100,2013-08-22 16:55:00,
2013-08-22 13:00:00,83.7,68.0,29.20,NNW,337,9.0,9.0,60,0.00,,,0.00,Rainwise IP-100,2013-08-22 17:00:00,
2013-08-22 13:05:00,84.1,67.0,29.20,NW,315,6.0,11.0,58,0.00,,,0.00,Rainwise IP-100,2013-08-22 17:05:00,
2013-08-22 13:10:00,84.3,69.0,29.20,West,270,1.0,8.0,61,0.00,,,0.00,Rainwise IP-100,2013-08-22 17:10:00,
2013-08-22 13:15:00,83.3,69.0,29.20,NW,315,5.0,9.0,62,0.00,,,0.00,Rainwise IP-100,2013-08-22 17:15:00,
2013-08-22 13:20:00,82.9,69.0,29.20,West,270,4.0,6.0,62,0.00,,,0.00,Rainwise IP-100,2013-08-22 17:20:00,
2013-08-22 13:25:00,83.2,67.0,29.19,West,270,3.0,7.0,58,0.00,,,0.00,Rainwise IP-100,2013-08-22 17:25:00,
2013-08-22 13:30:00,83.6,66.0,29.19,WSW,247,2.0,7.0,57,0.00,,,0.00,Rainwise IP-100,2013-08-22 17:30:00,
2013-08-22 13:35:00,84.1,68.0,29.19,South,180,2.0,9.0,59,0.00,,,0.00,Rainwise IP-100,2013-08-22 17:35:00,
2013-08-22 13:40:00,84.3,68.0,29.19,SW,225,4.0,6.0,59,0.00,,,0.00,Rainwise IP-100,2013-08-22 17:40:00,
2013-08-22 13:45:00,83.8,66.0,29.19,South,180,3.0,9.0,56,0.00,,,0.00,Rainwise IP-100,2013-08-22 17:45:00,
2013-08-22 13:50:00,83.8,66.0,29.19,SW,225,3.0,10.0,56,0.00,,,0.00,Rainwise IP-100,2013-08-22 17:50:00,
2013-08-22 13:55:00,84.2,67.0,29.18,WSW,247,2.0,7.0,56,0.00,,,0.00,Rainwise IP-100,2013-08-22 17:55:00,
2013-08-22 14:00:00,84.4,66.0,29.18,WSW,247,3.0,9.0,54,0.00,,,0.00,Rainwise IP-100,2013-08-22 18:00:00,
2013-08-22 14:05:00,84.5,67.0,29.18,SSW,202,2.0,7.0,56,0.00,,,0.00,Rainwise IP-100,2013-08-22 18:05:00,
2013-08-22 14:10:00,84.8,66.0,29.17,WNW,292,2.0,6.0,55,0.00,,,0.00,Rainwise IP-100,2013-08-22 18:10:00,
2013-08-22 14:15:00,85.1,67.0,29.17,SW,225,0.0,7.0,55,0.00,,,0.00,Rainwise IP-100,2013-08-22 18:15:00,
2013-08-22 14:20:00,84.8,66.0,29.17,WSW,247,6.0,6.0,55,0.00,,,0.00,Rainwise IP-100,2013-08-22 18:20:00,
2013-08-22 14:25:00,84.7,67.0,29.17,WSW,247,2.0,8.0,56,0.00,,,0.00,Rainwise IP-100,2013-08-22 18:25:00,
2013-08-22 14:30:00,84.7,66.0,29.17,WNW,292,4.0,9.0,53,0.00,,,0.00,Rainwise IP-100,2013-08-22 18:30:00,
2013-08-22 14:35:00,84.4,65.0,29.16,WNW,292,3.0,9.0,53,0.00,,,0.00,Rainwise IP-100,2013-08-22 18:35:00,
2013-08-22 14:40:00,84.8,66.0,29.16,SW,225,7.0,8.0,54,0.00,,,0.00,Rainwise IP-100,2013-08-22 18:40:00,
2013-08-22 14:45:00,84.8,65.0,29.16,NW,315,3.0,9.0,52,0.00,,,0.00,Rainwise IP-100,2013-08-22 18:45:00,
2013-08-22 14:50:00,84.9,67.0,29.15,SW,225,3.0,9.0,55,0.00,,,0.00,Rainwise IP-100,2013-08-22 18:50:00,
2013-08-22 14:55:00,85.2,66.0,29.15,South,180,2.0,6.0,53,0.00,,,0.00,Rainwise IP-100,2013-08-22 18:55:00,
2013-08-22 15:00:00,84.8,67.0,29.15,West,270,2.0,8.0,56,0.00,,,0.00,Rainwise IP-100,2013-08-22 19:00:00,
2013-08-22 15:05:00,85.0,68.0,29.15,WSW,247,2.0,4.0,57,0.00,,,0.00,Rainwise IP-100,2013-08-22 19:05:00,
2013-08-22 15:10:00,85.4,66.0,29.15,West,270,2.0,6.0,54,0.00,,,0.00,Rainwise IP-100,2013-08-22 19:10:00,
2013-08-22 15:15:00,85.3,66.0,29.15,SW,225,2.0,10.0,54,0.00,,,0.00,Rainwise IP-100,2013-08-22 19:15:00,
2013-08-22 15:20:00,85.2,66.0,29.15,WSW,247,6.0,9.0,53,0.00,,,0.00,Rainwise IP-100,2013-08-22 19:20:00,
2013-08-22 15:25:00,85.0,66.0,29.15,WSW,247,5.0,8.0,53,0.00,,,0.00,Rainwise IP-100,2013-08-22 19:25:00,
2013-08-22 15:30:00,83.8,66.0,29.15,WSW,247,4.0,10.0,55,0.00,,,0.00,Rainwise IP-100,2013-08-22 19:30:00,
2013-08-22 15:35:00,82.5,66.0,29.15,West,270,7.0,9.0,57,0.00,,,0.00,Rainwise IP-100,2013-08-22 19:35:00,
2013-08-22 15:40:00,81.9,66.0,29.15,WSW,247,2.0,10.0,58,0.00,,,0.00,Rainwise IP-100,2013-08-22 19:40:00,
2013-08-22 15:45:00,81.4,64.0,29.15,WSW,247,1.0,9.0,56,0.00,,,0.00,Rainwise IP-100,2013-08-22 19:45:00,
2013-08-22 15:50:00,80.8,64.0,29.16,West,270,11.0,12.0,58,0.00,,,0.00,Rainwise IP-100,2013-08-22 19:50:00,
2013-08-22 15:55:00,78.3,66.0,29.16,West,270,7.0,21.0,65,0.00,,,0.00,Rainwise IP-100,2013-08-22 19:55:00,
2013-08-22 16:00:00,76.7,65.0,29.16,WSW,247,4.0,17.0,68,0.00,,,0.00,Rainwise IP-100,2013-08-22 20:00:00,
2013-08-22 16:05:00,75.8,65.0,29.17,SW,225,10.0,16.0,71,0.00,,,0.00,Rainwise IP-100,2013-08-22 20:05:00,
2013-08-22 16:10:00,75.2,65.0,29.16,West,270,6.0,21.0,72,0.00,,,0.00,Rainwise IP-100,2013-08-22 20:10:00,
2013-08-22 16:15:00,74.8,66.0,29.16,West,270,6.0,19.0,73,0.00,,,0.00,Rainwise IP-100,2013-08-22 20:15:00,
2013-08-22 16:20:00,74.7,66.0,29.16,SW,225,5.0,12.0,74,0.00,,,0.00,Rainwise IP-100,2013-08-22 20:20:00,
2013-08-22 16:25:00,74.4,66.0,29.15,WNW,292,4.0,14.0,77,0.00,,,0.00,Rainwise IP-100,2013-08-22 20:25:00,
2013-08-22 16:30:00,73.8,67.0,29.15,West,270,7.0,16.0,81,0.00,,,0.00,Rainwise IP-100,2013-08-22 20:30:00,
2013-08-22 16:35:00,73.3,68.0,29.15,SW,225,4.0,9.0,84,0.00,,,0.00,Rainwise IP-100,2013-08-22 20:35:00,
2013-08-22 16:40:00,72.9,69.0,29.15,NW,315,2.0,11.0,87,0.00,,,0.00,Rainwise IP-100,2013-08-22 20:40:00,
2013-08-22 16:45:00,72.8,68.0,29.15,WSW,247,9.0,14.0,87,0.06,,,0.01,Rainwise IP-100,2013-08-22 20:45:00,
2013-08-22 16:50:00,72.8,68.0,29.14,West,270,2.0,11.0,85,0.06,,,0.01,Rainwise IP-100,2013-08-22 20:50:00,
2013-08-22 16:55:00,72.6,66.0,29.14,West,270,4.0,14.0,81,0.00,,,0.01,Rainwise IP-100,2013-08-22 20:55:00,
2013-08-22 17:00:00,72.4,66.0,29.14,WNW,292,2.0,15.0,82,0.00,,,0.01,Rainwise IP-100,2013-08-22 21:00:00,
2013-08-22 17:05:00,72.3,66.0,29.13,WNW,292,4.0,11.0,83,0.00,,,0.01,Rainwise IP-100,2013-08-22 21:05:00,
2013-08-22 17:10:00,72.3,67.0,29.13,WSW,247,1.0,8.0,85,0.00,,,0.01,Rainwise IP-100,2013-08-22 21:10:00,
2013-08-22 17:15:00,72.6,68.0,29.13,West,270,4.0,7.0,85,0.00,,,0.01,Rainwise IP-100,2013-08-22 21:15:00,
2013-08-22 17:20:00,73.0,68.0,29.13,WNW,292,1.0,14.0,84,0.00,,,0.01,Rainwise IP-100,2013-08-22 21:20:00,
2013-08-22 17:25:00,73.4,68.0,29.13,West,270,4.0,9.0,83,0.00,,,0.01,Rainwise IP-100,2013-08-22 21:25:00,
2013-08-22 17:30:00,73.9,69.0,29.14,SW,225,7.0,10.0,83,0.00,,,0.01,Rainwise IP-100,2013-08-22 21:30:00,
2013-08-22 17:35:00,74.8,69.0,29.14,SW,225,5.0,9.0,83,0.00,,,0.01,Rainwise IP-100,2013-08-22 21:35:00,
2013-08-22 17:40:00,75.3,69.0,29.14,NW,315,2.0,7.0,81,0.00,,,0.01,Rainwise IP-100,2013-08-22 21:40:00,
2013-08-22 17:45:00,75.7,68.0,29.15,NW,315,4.0,7.0,78,0.00,,,0.01,Rainwise IP-100,2013-08-22 21:45:00,
2013-08-22 17:50:00,75.8,68.0,29.15,NW,315,4.0,7.0,77,0.00,,,0.01,Rainwise IP-100,2013-08-22 21:50:00,
2013-08-22 17:55:00,75.8,68.0,29.14,WSW,247,1.0,7.0,78,0.00,,,0.01,Rainwise IP-100,2013-08-22 21:55:00,
2013-08-22 18:00:00,75.8,68.0,29.15,NW,315,1.0,5.0,78,0.00,,,0.01,Rainwise IP-100,2013-08-22 22:00:00,
2013-08-22 18:05:00,75.9,69.0,29.15,West,270,1.0,3.0,79,0.00,,,0.01,Rainwise IP-100,2013-08-22 22:05:00,
2013-08-22 18:10:00,75.9,68.0,29.15,NNW,337,2.0,4.0,77,0.00,,,0.01,Rainwise IP-100,2013-08-22 22:10:00,
2013-08-22 18:15:00,76.1,68.0,29.15,West,270,2.0,4.0,77,0.00,,,0.01,Rainwise IP-100,2013-08-22 22:15:00,
2013-08-22 18:20:00,76.2,68.0,29.15,NNW,337,2.0,6.0,77,0.00,,,0.01,Rainwise IP-100,2013-08-22 22:20:00,
2013-08-22 18:25:00,76.2,68.0,29.15,West,270,2.0,6.0,77,0.00,,,0.01,Rainwise IP-100,2013-08-22 22:25:00,
2013-08-22 18:30:00,76.4,69.0,29.15,NW,315,1.0,5.0,77,0.00,,,0.01,Rainwise IP-100,2013-08-22 22:30:00,
2013-08-22 18:35:00,76.6,69.0,29.15,NW,315,2.0,2.0,77,0.00,,,0.01,Rainwise IP-100,2013-08-22 22:35:00,
2013-08-22 18:40:00,76.5,69.0,29.15,NW,315,2.0,2.0,78,0.00,,,0.01,Rainwise IP-100,2013-08-22 22:40:00,
2013-08-22 18:45:00,76.5,69.0,29.15,NNW,337,1.0,2.0,77,0.00,,,0.01,Rainwise IP-100,2013-08-22 22:45:00,
2013-08-22 18:50:00,76.6,70.0,29.15,NNW,337,0.0,2.0,80,0.00,,,0.01,Rainwise IP-100,2013-08-22 22:50:00,
2013-08-22 18:55:00,76.5,69.0,29.15,NNW,337,0.0,0.0,79,0.00,,,0.01,Rainwise IP-100,2013-08-22 22:55:00,
2013-08-22 19:00:00,76.3,69.0,29.15,NNW,337,1.0,2.0,79,0.00,,,0.01,Rainwise IP-100,2013-08-22 23:00:00,
2013-08-22 19:05:00,76.2,69.0,29.16,West,270,1.0,4.0,78,0.00,,,0.01,Rainwise IP-100,2013-08-22 23:05:00,
2013-08-22 19:10:00,75.9,69.0,29.16,NW,315,2.0,3.0,80,0.00,,,0.01,Rainwise IP-100,2013-08-22 23:10:00,
2013-08-22 19:15:00,75.9,69.0,29.16,WSW,247,2.0,4.0,79,0.00,,,0.01,Rainwise IP-100,2013-08-22 23:15:00,
2013-08-22 19:20:00,75.6,67.0,29.16,West,270,4.0,8.0,76,0.00,,,0.01,Rainwise IP-100,2013-08-22 23:20:00,
2013-08-22 19:25:00,75.3,67.0,29.16,West,270,2.0,8.0,77,0.00,,,0.01,Rainwise IP-100,2013-08-22 23:25:00,
2013-08-22 19:30:00,75.1,67.0,29.16,West,270,4.0,4.0,77,0.00,,,0.01,Rainwise IP-100,2013-08-22 23:30:00,
2013-08-22 19:35:00,74.8,67.0,29.16,West,270,2.0,5.0,78,0.00,,,0.01,Rainwise IP-100,2013-08-22 23:35:00,
2013-08-22 19:40:00,74.6,68.0,29.16,NW,315,1.0,5.0,79,0.00,,,0.01,Rainwise IP-100,2013-08-22 23:40:00,
2013-08-22 19:45:00,74.3,67.0,29.16,West,270,2.0,5.0,79,0.00,,,0.01,Rainwise IP-100,2013-08-22 23:45:00,
2013-08-22 19:50:00,73.9,68.0,29.16,NW,315,2.0,4.0,81,0.00,,,0.01,Rainwise IP-100,2013-08-22 23:50:00,
2013-08-22 19:55:00,73.7,67.0,29.16,WNW,292,2.0,5.0,81,0.00,,,0.01,Rainwise IP-100,2013-08-22 23:55:00,
2013-08-22 20:00:00,73.6,68.0,29.16,WNW,292,2.0,4.0,82,0.00,,,0.01,Rainwise IP-100,2013-08-23 00:00:00,
2013-08-22 20:05:00,73.6,68.0,29.16,WNW,292,2.0,5.0,83,0.00,,,0.01,Rainwise IP-100,2013-08-23 00:05:00,
2013-08-22 20:10:00,73.6,68.0,29.16,WNW,292,1.0,4.0,83,0.00,,,0.01,Rainwise IP-100,2013-08-23 00:10:00,
2013-08-22 20:15:00,73.4,68.0,29.17,WNW,292,1.0,3.0,84,0.00,,,0.01,Rainwise IP-100,2013-08-23 00:15:00,
2013-08-22 20:20:00,73.2,69.0,29.16,West,270,1.0,2.0,85,0.00,,,0.01,Rainwise IP-100,2013-08-23 00:20:00,
2013-08-22 20:25:00,73.0,68.0,29.17,West,270,0.0,2.0,85,0.00,,,0.01,Rainwise IP-100,2013-08-23 00:25:00,
2013-08-22 20:30:00,72.8,68.0,29.17,West,270,2.0,2.0,86,0.00,,,0.01,Rainwise IP-100,2013-08-23 00:30:00,
2013-08-22 20:35:00,72.6,69.0,29.17,West,270,1.0,2.0,88,0.00,,,0.01,Rainwise IP-100,2013-08-23 00:35:00,
2013-08-22 20:40:00,72.2,69.0,29.17,West,270,0.0,2.0,89,0.00,,,0.01,Rainwise IP-100,2013-08-23 00:40:00,
2013-08-22 20:45:00,71.9,69.0,29.17,West,270,0.0,2.0,90,0.00,,,0.01,Rainwise IP-100,2013-08-23 00:45:00,
2013-08-22 20:50:00,71.6,69.0,29.17,WNW,292,1.0,2.0,91,0.00,,,0.01,Rainwise IP-100,2013-08-23 00:50:00,
2013-08-22 20:55:00,71.4,68.0,29.18,WSW,247,1.0,3.0,91,0.00,,,0.01,Rainwise IP-100,2013-08-23 00:55:00,
2013-08-22 21:00:00,71.4,68.0,29.18,WNW,292,2.0,2.0,91,0.00,,,0.01,Rainwise IP-100,2013-08-23 01:00:00,
2013-08-22 21:05:00,71.4,68.0,29.18,WSW,247,1.0,4.0,91,0.00,,,0.01,Rainwise IP-100,2013-08-23 01:05:00,
2013-08-22 21:11:00,71.5,69.0,29.18,WSW,247,2.0,4.0,91,0.00,,,0.01,Rainwise IP-100,2013-08-23 01:11:00,
2013-08-22 21:16:00,71.3,68.0,29.18,WNW,292,1.0,3.0,91,0.00,,,0.01,Rainwise IP-100,2013-08-23 01:16:00,
2013-08-22 21:21:00,71.2,68.0,29.18,West,270,1.0,4.0,91,0.00,,,0.01,Rainwise IP-100,2013-08-23 01:21:00,
2013-08-22 21:26:00,70.9,68.0,29.19,West,270,2.0,2.0,91,0.00,,,0.01,Rainwise IP-100,2013-08-23 01:26:00,
2013-08-22 21:31:00,70.8,67.0,29.19,WSW,247,1.0,2.0,91,0.00,,,0.01,Rainwise IP-100,2013-08-23 01:31:00,
2013-08-22 21:36:00,70.7,67.0,29.19,West,270,2.0,3.0,91,0.00,,,0.01,Rainwise IP-100,2013-08-23 01:36:00,
2013-08-22 21:41:00,70.7,67.0,29.19,West,270,2.0,6.0,91,0.00,,,0.01,Rainwise IP-100,2013-08-23 01:41:00,
2013-08-22 21:46:00,70.8,67.0,29.19,West,270,2.0,4.0,90,0.00,,,0.01,Rainwise IP-100,2013-08-23 01:46:00,
2013-08-22 21:51:00,71.0,67.0,29.19,West,270,4.0,6.0,89,0.00,,,0.01,Rainwise IP-100,2013-08-23 01:51:00,
2013-08-22 21:56:00,71.1,67.0,29.19,SW,225,2.0,4.0,89,0.00,,,0.01,Rainwise IP-100,2013-08-23 01:56:00,
2013-08-22 22:01:00,70.9,67.0,29.19,West,270,2.0,6.0,90,0.00,,,0.01,Rainwise IP-100,2013-08-23 02:01:00,
2013-08-22 22:06:00,70.7,67.0,29.19,West,270,2.0,4.0,90,0.00,,,0.01,Rainwise IP-100,2013-08-23 02:06:00,
2013-08-22 22:11:00,70.6,67.0,29.19,West,270,2.0,4.0,91,0.00,,,0.01,Rainwise IP-100,2013-08-23 02:11:00,
2013-08-22 22:16:00,70.5,67.0,29.19,SW,225,1.0,3.0,90,0.00,,,0.01,Rainwise IP-100,2013-08-23 02:16:00,
2013-08-22 22:21:00,70.4,67.0,29.18,SW,225,1.0,6.0,90,0.00,,,0.01,Rainwise IP-100,2013-08-23 02:21:00,
2013-08-22 22:26:00,70.4,67.0,29.19,West,270,2.0,4.0,90,0.00,,,0.01,Rainwise IP-100,2013-08-23 02:26:00,
2013-08-22 22:31:00,70.2,67.0,29.18,West,270,1.0,3.0,90,0.00,,,0.01,Rainwise IP-100,2013-08-23 02:31:00,
2013-08-22 22:36:00,70.1,67.0,29.19,West,270,2.0,4.0,90,0.00,,,0.01,Rainwise IP-100,2013-08-23 02:36:00,
2013-08-22 22:41:00,69.9,67.0,29.19,WNW,292,1.0,4.0,90,0.00,,,0.01,Rainwise IP-100,2013-08-23 02:41:00,
2013-08-22 22:46:00,69.8,66.0,29.19,WSW,247,1.0,4.0,90,0.00,,,0.01,Rainwise IP-100,2013-08-23 02:46:00,
2013-08-22 22:51:00,69.6,66.0,29.19,West,270,1.0,4.0,90,0.00,,,0.01,Rainwise IP-100,2013-08-23 02:51:00,
2013-08-22 22:56:00,69.5,66.0,29.19,West,270,1.0,5.0,89,0.00,,,0.01,Rainwise IP-100,2013-08-23 02:56:00,
2013-08-22 23:01:00,69.4,65.0,29.19,WSW,247,3.0,4.0,88,0.00,,,0.01,Rainwise IP-100,2013-08-23 03:01:00,
2013-08-22 23:06:00,69.3,65.0,29.19,WSW,247,2.0,4.0,87,0.00,,,0.01,Rainwise IP-100,2013-08-23 03:06:00,
2013-08-22 23:11:00,69.2,65.0,29.19,WSW,247,2.0,3.0,87,0.00,,,0.01,Rainwise IP-100,2013-08-23 03:11:00,
2013-08-22 23:16:00,69.2,64.0,29.19,WSW,247,1.0,4.0,85,0.00,,,0.01,Rainwise IP-100,2013-08-23 03:16:00,
2013-08-22 23:21:00,69.2,64.0,29.19,WSW,247,2.0,4.0,85,0.00,,,0.01,Rainwise IP-100,2013-08-23 03:21:00,
2013-08-22 23:26:00,69.1,64.0,29.19,WSW,247,1.0,4.0,85,0.00,,,0.01,Rainwise IP-100,2013-08-23 03:26:00,
2013-08-22 23:31:00,68.9,64.0,29.19,WSW,247,2.0,4.0,85,0.00,,,0.01,Rainwise IP-100,2013-08-23 03:31:00,
2013-08-22 23:37:00,68.9,64.0,29.19,West,270,1.0,6.0,84,0.00,,,0.01,Rainwise IP-100,2013-08-23 03:37:00,
2013-08-22 23:42:00,68.9,64.0,29.19,SW,225,1.0,6.0,84,0.00,,,0.01,Rainwise IP-100,2013-08-23 03:42:00,
2013-08-22 23:47:00,68.9,64.0,29.19,West,270,5.0,6.0,84,0.00,,,0.01,Rainwise IP-100,2013-08-23 03:47:00,
2013-08-22 23:52:00,68.9,64.0,29.19,SW,225,2.0,5.0,84,0.00,,,0.01,Rainwise IP-100,2013-08-23 03:52:00,
2013-08-22 23:57:00,68.8,63.0,29.19,WNW,292,2.0,6.0,84,0.00,,,0.01,Rainwise IP-100,2013-08-23 03:57:00,